Tracking 29892 objects as of 21-Nov-2024
HD Live streaming from Space Station
objects crossing your sky now

BLOCK DM-SL R/B

Track BLOCK DM-SL R/B now!


NORAD ID: 39774
Int'l Code: 2014-030B
Perigee: 424.9 km
Apogee: 35,339.9 km
Inclination: 0.8 °
Period: 626.5 minutes
Semi major axis: 24253 km
RCS: Unknown
Launch date: May 26, 2014
Source: Sea Launch (SEAL)
Launch site: SEA LAUNCH (SEAL)

Note: This is a ROCKET BODY
Your satellite tracking list
Your tracking list is empty




NASA's NSSDC Master Catalog

Two Line Element Set (TLE):
1 39774U 14030B   24325.52539080  .00000229  00000-0  85800-3 0  9993
2 39774   0.7669  29.4281 7197953 293.1512   4.4944  2.29849518 87738
Source of the keplerian elements: AFSPC